Ft Lauderdale, FL

2:33 PM EDT on October 21, 2019 (GMT -0400)
Fort Lauderdale-Hollywood International

Weather History for KFLL - September, 2019

Change the Weather History Date:

Sunday, September 22, 2019

  Actual Average Record
Temperature  
Mean Temperature 83 °F 83 °F  
Max Temperature 87 °F 89 °F 95 °F (1943)
Min Temperature 78 °F 77 °F 65 °F (1938)
Degree Days  
Heating Degree Days 0 0  
Month to date heating degree days 0 0  
Since 1 July heating degree days 0 0  
Cooling Degree Days 18 18  
Month to date cooling degree days 428 402  
Year to date cooling degree days 3815 3568  
Growing Degree Days 33 (Base 50)    
Moisture  
Dew Point 70 °F    
Average Humidity 69    
Maximum Humidity 79    
Minimum Humidity 59    
Precipitation  
Precipitation T in 0.31 in 5.80 in (1948)
Month to date precipitation 1.30 6.42  
Year to date precipitation 41.94 47.49  
Snow  
Snow 0.00 in - - ()
Month to date snowfall 0.0  
Since 1 July snowfall 0.0  
Since 1 September snowfall 0.0  
Snow Depth 0.00 in    
Sea Level Pressure  
Sea Level Pressure 30.00 in    
Wind  
Wind Speed 18 mph (ENE)    
Max Wind Speed 25 mph    
Max Gust Speed 32 mph    
Visibility 10 miles    
Events      
T = Trace of Precipitation, MM = Missing Value Source: NWS Daily Summary

Daily Weather History Graph

Daily Weather History Graph

Search for Another Location

Airport or City:

Astronomy

Sep. 22, 2019 Rise Set
Actual Time 7:09 AM EDT 7:17 PM EDT
Civil Twilight 6:46 AM EDT 7:40 PM EDT
Nautical Twilight 6:19 AM EDT 8:07 PM EDT
Astronomical Twilight 5:52 AM EDT 8:33 PM EDT
Moon 12:31 AM EDT (9/22) 2:35 PM EDT (9/22)
Length of Visible Light 12h 54m
Length of Day
12h 08m
Last Quarter, 44% of the Moon is Illuminated
Sep 22
Last Quarter
Sep 28
New
Oct 5
First Quarter
Oct 13
Full
Oct 21
Last Quarter

Hourly Weather History & Observations

Time (EDT) Temp. Heat Index Dew Point Humidity Pressure Visibility Wind Dir Wind Speed Gust Speed Precip Events Conditions
12:53 AM 81.0 °F 84.9 °F 71.1 °F 72% 30.02 in 10.0 mi ENE 15.0 mph 25.3 mph N/A   Overcast
1:53 AM 80.1 °F 83.2 °F 70.0 °F 71% 30.01 in 10.0 mi ENE 19.6 mph 26.5 mph N/A   Mostly Cloudy
2:53 AM 80.1 °F 83.2 °F 70.0 °F 71% 30.00 in 10.0 mi ENE 20.7 mph 26.5 mph N/A   Scattered Clouds
3:53 AM 80.1 °F 83.2 °F 70.0 °F 71% 29.99 in 10.0 mi ENE 19.6 mph 26.5 mph N/A   Mostly Cloudy
4:53 AM 80.1 °F 82.7 °F 68.0 °F 67% 29.98 in 10.0 mi ENE 16.1 mph 24.2 mph N/A   Scattered Clouds
5:53 AM 79.0 °F - 68.0 °F 69% 29.99 in 10.0 mi East 20.7 mph 25.3 mph N/A   Scattered Clouds
6:53 AM 79.0 °F - 66.9 °F 66% 29.99 in 10.0 mi ENE 21.9 mph 29.9 mph N/A   Scattered Clouds
7:53 AM 80.1 °F 82.9 °F 69.1 °F 69% 30.00 in 10.0 mi ENE 12.7 mph - N/A   Mostly Cloudy
8:53 AM 82.0 °F 85.9 °F 70.0 °F 67% 30.02 in 10.0 mi East 20.7 mph 27.6 mph N/A   Mostly Cloudy
9:53 AM 82.9 °F 86.5 °F 69.1 °F 63% 30.04 in 10.0 mi ENE 19.6 mph 25.3 mph N/A   Mostly Cloudy
10:53 AM 82.9 °F 86.5 °F 69.1 °F 63% 30.04 in 10.0 mi East 20.7 mph 29.9 mph N/A   Mostly Cloudy
11:53 AM 84.0 °F 88.4 °F 70.0 °F 63% 30.04 in 10.0 mi ENE 21.9 mph 28.8 mph N/A   Mostly Cloudy
12:53 PM 87.1 °F 92.8 °F 71.1 °F 59% 30.02 in 10.0 mi ENE 16.1 mph 25.3 mph N/A   Mostly Cloudy
1:53 PM 86.0 °F 92.2 °F 72.0 °F 63% 30.01 in 10.0 mi ENE 17.3 mph 27.6 mph N/A   Mostly Cloudy
2:53 PM 84.0 °F 89.0 °F 71.1 °F 65% 29.99 in 10.0 mi ENE 19.6 mph 26.5 mph N/A   Mostly Cloudy
3:53 PM 84.9 °F 90.7 °F 72.0 °F 65% 29.97 in 10.0 mi ENE 17.3 mph 24.2 mph N/A   Mostly Cloudy
4:53 PM 82.9 °F 87.5 °F 71.1 °F 67% 29.97 in 10.0 mi NE 21.9 mph 26.5 mph N/A   Mostly Cloudy
5:53 PM 82.9 °F 87.5 °F 71.1 °F 67% 29.97 in 10.0 mi ENE 21.9 mph 28.8 mph N/A   Mostly Cloudy
6:53 PM 81.0 °F 84.9 °F 71.1 °F 72% 29.96 in 10.0 mi NE 17.3 mph 28.8 mph N/A   Mostly Cloudy
7:53 PM 81.0 °F 84.9 °F 71.1 °F 72% 29.97 in 10.0 mi ENE 15.0 mph 25.3 mph N/A   Mostly Cloudy
8:53 PM 79.0 °F - 72.0 °F 79% 29.99 in 10.0 mi ENE 16.1 mph 19.6 mph 0.00 in   Mostly Cloudy
9:53 PM 80.1 °F 83.6 °F 71.1 °F 74% 30.00 in 10.0 mi ENE 12.7 mph - N/A   Scattered Clouds
10:53 PM 80.1 °F 83.2 °F 70.0 °F 71% 30.01 in 10.0 mi ENE 15.0 mph - N/A   Scattered Clouds
11:53 PM 79.0 °F - 69.1 °F 72% 30.00 in 10.0 mi ENE 12.7 mph - N/A   Scattered Clouds